Location: Unspecified
(54.1780°N, 0.0000°E)
Time: 15:33:18
(UTC+00:00)

Transit 2A - Pass Details

Date: 17 June 2019
Orbit: 594 x 965 km, 66.7° (Epoch: 17 July)

Event Time Altitude Azimuth Distance (km) Brightness Sun altitude
Rises 05:01:02 0° 276° (W) 3,650 9.0 10.5°
Reaches altitude 10° 05:04:03 10° 288° (WNW) 2,688 8.4 10.9°
Maximum altitude 05:09:22 28° 346° (NNW) 1,684 8.0 11.7°
Drops below altitude 10° 05:14:26 10° 44° (NE) 2,550 10.2 12.3°
Sets 05:17:14 0° 56° (NE) 3,431 11.2 12.7°
